Location: Sommers-Bausch Observatory
(40.0037°N, 105.2635°W)
Time: 19:38:43
(UTC-06:00)

Amateur Radio Satellites - All Passes

Search period start: 17 September 2014 19:08
Search period end: 18 September 2014 19:08
Location: Sommers-Bausch Observatory, 40.0037°N, 105.2635°W

Satellite Date Start Highest point End Downlink Frequencies (MHz)
Time Altitude Azimuth
STRAND 1 17 Sep 19:27:58 19:32:53 44° 99° (E) 19:37:46 ?
HO-68 17 Sep 19:43:57 19:49:16 23° 58° (ENE) 19:54:36 435.675 MHz FM
KITSAT 1 17 Sep 19:54:20 20:02:16 64° 114° (ESE) 20:10:13 435.175 FM
SO-67 17 Sep 20:21:22 20:23:28 15° 267° (W) 20:25:34 435.3500 MHz FM
UKube-1 17 Sep 20:36:54 20:39:35 16° 64° (ENE) 20:42:18 145.840 MHz, 145.915 MHz
STRAND 1 17 Sep 21:07:52 21:11:46 22° 295° (WNW) 21:15:39 ?
Sapphire 17 Sep 21:08:33 21:12:55 24° 48° (NE) 21:17:16 437.095 MHz 1200 baud AX-25 AFSK
HO-68 17 Sep 21:29:13 21:36:18 70° 256° (WSW) 21:43:28 435.675 MHz FM
PCSat 17 Sep 21:35:24 21:40:31 40° 54° (NE) 21:45:35 145.825 MHz
FUNcube-1 17 Sep 21:41:38 21:45:03 23° 67° (ENE) 21:48:32 145.950 - 145.970 MHz USB
KITSAT 1 17 Sep 21:51:03 21:58:09 33° 315° (NW) 22:05:19 435.175 FM
Oscar 11 17 Sep 21:56:20 22:00:42 82° 76° (ENE) 22:05:05 145.825 FM, Beacon 2401.500 USB
AO-40 17 Sep 22:08:32 01:16:38 26° 124° (SE) 02:37:03 Beacon 2401.320
UKube-1 17 Sep 22:11:17 22:15:25 45° 260° (W) 22:19:35 145.840 MHz, 145.915 MHz
SO-50 17 Sep 22:25:58 22:29:44 27° 113° (ESE) 22:33:36 436.795 FM
Sapphire 17 Sep 22:51:22 22:56:39 53° 247° (WSW) 23:01:53 437.095 MHz 1200 baud AX-25 AFSK
FUNcube-1 17 Sep 23:17:20 23:21:14 32° 264° (W) 23:25:16 145.950 - 145.970 MHz USB
PCSat 17 Sep 23:19:10 23:23:43 28° 252° (WSW) 23:28:16 145.825 MHz
KITSAT 1 17 Sep 23:54:16 23:56:38 11° 342° (NNW) 23:59:01 435.175 FM
SO-50 18 Sep 00:06:08 00:10:10 32° 311° (NW) 00:14:20 436.795 FM
UOSAT-12 18 Sep 00:14:27 00:18:25 29° 113° (ESE) 00:22:28 437.025 FM, 437.400 FM
Oscar 16 18 Sep 01:13:49 01:15:30 11° 89° (E) 01:17:10 437.025 USB, Beacon 2401.1428
Saudisat 1A 18 Sep 01:47:42 01:51:08 22° 46° (NE) 01:54:34 436.775 MHz
ITAMSAT 1 18 Sep 01:53:30 01:54:58 11° 89° (E) 01:56:26 435.822 SSB
UOSAT-12 18 Sep 01:54:18 01:58:29 33° 311° (NW) 02:02:45 437.025 FM, 437.400 FM
KITSAT 1 18 Sep 01:55:06 01:56:45 11° 15° (NNE) 01:58:25 435.175 FM
Uribyol 2 18 Sep 01:57:15 01:59:47 14° 90° (E) 02:02:19 436.500 FM
Oscar 10/S400 18 Sep 02:02:22 03:12:07 38° 230° (SW) 08:03:05 145.825 - 145.975 CW/USB, Beacon 145.810 USB
Oscar 19 18 Sep 02:11:53 02:16:49 43° 99° (E) 02:21:42 437.125 CW, 437.150 USB
AO-27 18 Sep 02:25:39 02:29:55 25° 95° (E) 02:34:09 436.795 MHz FM
PANSAT 18 Sep 02:44:24 02:45:07 10° 167° (SSE) 02:45:49 not established
ISS 18 Sep 02:48:01 02:50:43 23° 133° (SE) 02:53:26 145.800 FM
Oscar 16 18 Sep 02:50:14 02:55:26 79° 285° (WNW) 03:00:34 437.025 USB, Beacon 2401.1428
JAS-1B 18 Sep 02:57:07 03:02:46 53° 100° (E) 03:08:19 435.800 - 435.900 CW/SSB
Gurwin Techsat 1B 18 Sep 03:07:47 03:12:25 30° 96° (E) 03:17:01 435.225 FM
AO-Echo 18 Sep 03:17:44 03:22:34 86° 284° (WNW) 03:27:33 ?
Saudisat 1A 18 Sep 03:26:42 03:30:55 44° 243° (WSW) 03:35:05 436.775 MHz
ITAMSAT 1 18 Sep 03:29:49 03:35:03 82° 285° (WNW) 03:40:16 435.822 SSB
Uribyol 2 18 Sep 03:34:32 03:39:44 70° 286° (WNW) 03:44:55 436.500 FM
TMSAT-1 18 Sep 03:45:38 03:50:48 50° 100° (E) 03:55:55 436.925 FM
KITSAT 1 18 Sep 03:48:32 03:55:27 30° 43° (NE) 04:02:18 435.175 FM
Oscar 19 18 Sep 03:51:53 03:55:52 23° 295° (WNW) 03:59:49 437.125 CW, 437.150 USB
AO-27 18 Sep 04:04:42 04:09:30 39° 291° (WNW) 04:14:18 436.795 MHz FM
PANSAT 18 Sep 04:22:22 04:24:33 15° 180° (S) 04:26:43 not established
ISS 18 Sep 04:24:09 04:27:18 39° 329° (NNW) 04:30:28 145.800 FM
OPAL 18 Sep 04:26:12 04:31:13 53° 70° (ENE) 04:36:18 ?
Uosat F 18 Sep 04:27:12 04:30:52 20° 94° (E) 04:34:32 435.120 FM
RS-15 18 Sep 04:32:39 04:43:25 60° 113° (ESE) 04:54:01 29.354 - 29.394 USB, Beacon 29.352 USB
AO-7 18 Sep 04:32:58 04:40:18 34° 97° (E) 04:47:35 29.400 - 29.500 MHz
Gurwin Techsat 1B 18 Sep 04:47:38 04:52:21 33° 292° (WNW) 04:57:03 435.225 FM
JAS-1B 18 Sep 04:48:58 04:53:00 20° 299° (WNW) 04:56:57 435.800 - 435.900 CW/SSB
ITAMSAT 1 18 Sep 05:12:41 05:13:41 11° 302° (WNW) 05:14:41 435.822 SSB
TMSAT-1 18 Sep 05:26:27 05:30:20 21° 296° (WNW) 05:34:13 436.925 FM
JAS-2 18 Sep 05:36:36 05:40:39 18° 93° (E) 05:44:57 435.800 - 435.900 CW/SSB, 435.910 FM
KITSAT 1 18 Sep 05:43:30 05:51:32 72° 244° (WSW) 05:59:31 435.175 FM
PANSAT 18 Sep 06:02:57 06:03:59 11° 192° (SSW) 06:05:00 not established
ISS 18 Sep 06:03:01 06:04:44 13° 348° (NNW) 06:06:26 145.800 FM
Uosat F 18 Sep 06:05:05 06:09:51 45° 289° (WNW) 06:14:36 435.120 FM
OPAL 18 Sep 06:06:53 06:10:23 18° 266° (W) 06:13:56 ?
AO-7 18 Sep 06:25:21 06:33:19 53° 295° (WNW) 06:41:15 29.400 - 29.500 MHz
Hamsat 18 Sep 06:41:19 06:45:30 54° 100° (E) 06:49:37 145.90 MHz
STRAND 1 18 Sep 06:43:15 06:48:14 60° 73° (ENE) 06:53:15 ?
RS-15 18 Sep 06:45:54 06:56:10 43° 317° (NW) 07:06:26 29.354 - 29.394 USB, Beacon 29.352 USB
SO-50 18 Sep 06:57:40 07:01:40 26° 47° (NE) 07:05:42 436.795 FM
JAS-2 18 Sep 07:20:06 07:26:01 70° 286° (WNW) 07:32:43 435.800 - 435.900 CW/SSB, 435.910 FM
ISS 18 Sep 07:41:03 07:42:35 13° 9° (N) 07:44:07 145.800 FM
KITSAT 1 18 Sep 07:42:47 07:45:28 12° 262° (W) 07:48:09 435.175 FM
SO-67 18 Sep 07:44:12 07:47:24 35° 98° (E) 07:50:34 435.3500 MHz FM
Hamsat 18 Sep 08:18:57 08:20:59 13° 296° (WNW) 08:23:00 145.90 MHz
AO-7 18 Sep 08:21:47 08:24:13 12° 316° (NW) 08:26:38 29.400 - 29.500 MHz
STRAND 1 18 Sep 08:24:55 08:27:49 15° 269° (W) 08:30:44 ?
SO-50 18 Sep 08:37:50 08:42:24 43° 244° (WSW) 08:46:59 436.795 FM
UOSAT-12 18 Sep 08:44:27 08:48:20 25° 46° (NE) 08:52:10 437.025 FM, 437.400 FM
MaSat-1 18 Sep 08:44:31 08:49:24 55° 111° (ESE) 08:54:17 437.345 MHz
HO-68 18 Sep 08:58:33 09:04:05 24° 93° (E) 09:09:35 435.675 MHz FM
RS-15 18 Sep 09:05:21 09:12:36 19° 349° (N) 09:19:56 29.354 - 29.394 USB, Beacon 29.352 USB
JAS-2 18 Sep 09:09:19 09:10:16 10° 302° (WNW) 09:11:13 435.800 - 435.900 CW/SSB, 435.910 FM
ISS 18 Sep 09:17:02 09:20:06 32° 29° (NNE) 09:23:08 145.800 FM
SO-67 18 Sep 09:18:34 09:20:05 13° 293° (WNW) 09:21:37 435.3500 MHz FM
Oscar 11 18 Sep 09:46:00 09:48:39 16° 92° (E) 09:51:17 145.825 FM, Beacon 2401.500 USB
UKube-1 18 Sep 10:00:14 10:04:06 30° 97° (E) 10:07:57 145.840 MHz, 145.915 MHz
MaSat-1 18 Sep 10:22:45 10:26:30 21° 307° (NW) 10:30:12 437.345 MHz
UOSAT-12 18 Sep 10:24:12 10:28:40 43° 244° (WSW) 10:33:02 437.025 FM, 437.400 FM
HO-68 18 Sep 10:45:09 10:52:14 64° 290° (WNW) 10:59:17 435.675 MHz FM
ISS 18 Sep 10:53:49 10:56:46 29° 225° (SW) 10:59:42 145.800 FM
FUNcube-1 18 Sep 11:06:33 11:11:04 51° 99° (E) 11:15:31 145.950 - 145.970 MHz USB
Oscar 11 18 Sep 11:20:55 11:25:03 43° 288° (WNW) 11:29:08 145.825 FM, Beacon 2401.500 USB
RS-15 18 Sep 11:21:56 11:30:33 25° 26° (NNE) 11:39:19 29.354 - 29.394 USB, Beacon 29.352 USB
UKube-1 18 Sep 11:36:41 11:40:08 23° 293° (WNW) 11:43:35 145.840 MHz, 145.915 MHz
Sapphire 18 Sep 11:50:32 11:54:35 22° 106° (ESE) 11:58:39 437.095 MHz 1200 baud AX-25 AFSK
PCSat 18 Sep 12:16:31 12:21:32 41° 111° (ESE) 12:26:36 145.825 MHz
Oscar 16 18 Sep 12:29:26 12:32:49 18° 63° (ENE) 12:36:13 437.025 USB, Beacon 2401.1428
HO-68 18 Sep 12:36:02 12:38:33 12° 310° (NW) 12:41:04 435.675 MHz FM
FUNcube-1 18 Sep 12:44:09 12:47:00 16° 296° (WNW) 12:49:51 145.950 - 145.970 MHz USB
AO-Echo 18 Sep 12:54:56 12:56:51 12° 62° (ENE) 12:58:45 ?
ITAMSAT 1 18 Sep 13:10:04 13:13:26 18° 62° (ENE) 13:16:48 435.822 SSB
Uribyol 2 18 Sep 13:14:10 13:17:55 21° 64° (ENE) 13:21:40 436.500 FM
Oscar 19 18 Sep 13:27:58 13:33:04 59° 73° (ENE) 13:38:11 437.125 CW, 437.150 USB
Sapphire 18 Sep 13:32:23 13:37:37 50° 303° (WNW) 13:42:54 437.095 MHz 1200 baud AX-25 AFSK
RS-15 18 Sep 13:34:20 13:45:26 69° 54° (NE) 13:56:57 29.354 - 29.394 USB, Beacon 29.352 USB
JAS-1B 18 Sep 13:39:21 13:47:40 51° 70° (ENE) 13:54:41 435.800 - 435.900 CW/SSB
AO-27 18 Sep 13:43:08 13:47:48 36° 69° (ENE) 13:52:30 436.795 MHz FM
PCSat 18 Sep 14:00:22 14:05:03 29° 309° (NW) 14:09:46 145.825 MHz
Oscar 16 18 Sep 14:06:35 14:11:41 58° 259° (W) 14:16:49 437.025 USB, Beacon 2401.1428
Gurwin Techsat 1B 18 Sep 14:28:09 14:33:09 44° 70° (ENE) 14:38:10 435.225 FM
AO-Echo 18 Sep 14:30:17 14:35:02 71° 258° (WSW) 14:39:45 ?
ITAMSAT 1 18 Sep 14:47:22 14:52:27 58° 259° (W) 14:57:33 435.822 SSB
Uribyol 2 18 Sep 14:52:02 14:57:00 49° 260° (W) 15:02:02 436.500 FM
TMSAT-1 18 Sep 15:05:43 15:10:58 72° 74° (ENE) 15:16:16 436.925 FM
Oscar 19 18 Sep 15:09:38 15:12:46 16° 269° (W) 15:15:56 437.125 CW, 437.150 USB
AO-27 18 Sep 15:23:03 15:27:21 27° 265° (W) 15:31:41 436.795 MHz FM
JAS-1B 18 Sep 15:30:30 15:38:16 34° 263° (W) 15:45:01 435.800 - 435.900 CW/SSB
AO-7 18 Sep 15:31:09 15:38:52 45° 63° (ENE) 15:46:34 29.400 - 29.500 MHz
Uosat F 18 Sep 15:39:50 15:43:58 27° 66° (ENE) 15:48:08 435.120 FM
RS-15 18 Sep 15:47:33 15:57:01 34° 254° (WSW) 16:06:51 29.354 - 29.394 USB, Beacon 29.352 USB
Gurwin Techsat 1B 18 Sep 16:09:13 16:13:17 22° 266° (W) 16:17:23 435.225 FM
OPAL 18 Sep 16:38:36 16:41:19 14° 93° (E) 16:44:00 ?
TMSAT-1 18 Sep 16:48:58 16:51:24 13° 270° (W) 16:53:51 436.925 FM
Uosat F 18 Sep 17:18:06 17:22:36 34° 263° (W) 17:27:09 435.120 FM
AO-7 18 Sep 17:23:55 17:31:37 41° 261° (W) 17:39:22 29.400 - 29.500 MHz
Saudisat 1A 18 Sep 17:32:09 17:36:25 54° 118° (ESE) 17:40:44 436.775 MHz
JAS-2 18 Sep 17:32:50 17:37:49 43° 71° (ENE) 17:42:42 435.800 - 435.900 CW/SSB, 435.910 FM
Hamsat 18 Sep 17:33:53 17:37:52 36° 71° (ENE) 17:41:51 145.90 MHz
OPAL 18 Sep 18:15:30 18:20:39 66° 289° (WNW) 18:25:41 ?
SO-67 18 Sep 18:18:25 18:19:40 12° 67° (ENE) 18:20:56 435.3500 MHz FM
KITSAT 1 18 Sep 18:19:09 18:24:00 17° 101° (E) 18:28:52 435.175 FM
MaSat-1 18 Sep 18:38:50 18:42:41 83° 245° (WSW) 18:45:56 437.345 MHz
STRAND 1 18 Sep 18:55:17 18:59:10 21° 94° (E) 19:03:02 ?
